CW1490 Weather Reports


time (UTC)temp
C
wind
direction
speed
KPH
gust
KPH
rain 1hr
cm
rain 24hr
cm
rain mn
cm
humidity
%
barometer
mb
20260904174011 26 265 1.6 14.5 0.00 0.00 0.00 56 1010.4
20260904173512 26 344 4.8 20.9 0.00 0.00 0.00 54 1010.3
20260904173024 27 59 6.4 20.9 0.00 0.00 0.00 55 1010.3
20260904172508 26 300 6.4 22.5 0.00 0.00 0.00 60 1010.3
20260904172011 26 317 8.0 24.1 0.00 0.00 0.00 56 1010.4
20260904171536 26 328 9.7 27.4 0.00 0.00 0.00 56 1010.4
20260904171010 26 17 6.4 27.4 0.00 0.00 0.00 55 1010.5
20260904170508 27 19 19.3 25.7 0.00 0.00 0.00 52 1010.5
20260904170026 27 36 9.7 25.7 0.00 0.00 0.00 58 1010.6
20260904165510 27 36 11.3 22.5 0.00 0.00 0.00 57 1010.5
20260904165010 26 321 11.3 22.5 0.00 0.00 0.00 58 1010.7
20260904164526 26 309 3.2 20.9 0.00 0.00 0.00 57 1010.7
20260904164010 26 137 8.0 32.2 0.00 0.00 0.00 56 1010.6
20260904163514 26 32 11.3 32.2 0.00 0.00 0.00 54 1010.7
20260904163023 26 15 8.0 25.7 0.00 0.00 0.00 56 1010.8
20260904162509 26 330 14.5 25.7 0.00 0.00 0.00 56 1010.9
20260904162012 26 49 9.7 33.8 0.00 0.00 0.00 56 1010.9
20260904161524 27 34 4.8 33.8 0.00 0.00 0.00 56 1010.8
20260904161011 27 9 4.8 17.7 0.00 0.00 0.00 57 1010.8
20260904160518 27 291 1.6 17.7 0.00 0.00 0.00 57 1010.8
20260904160034 26 340 6.4 24.1 0.00 0.00 0.00 59 1010.9
20260904155512 26 50 12.9 24.1 0.00 0.00 0.00 56 1011.0
20260904155019 26 31 9.7 22.5 0.00 0.00 0.00 60 1011.1
20260904154527 26 33 9.7 24.1 0.00 0.00 0.00 61 1011.1
20260904154010 26 26 12.9 33.8 0.00 0.00 0.00 58 1011.1
20260904153506 26 292 6.4 33.8 0.00 0.00 0.00 63 1011.1
20260904153019 26 44 9.7 25.7 0.00 0.00 0.00 62 1011.2
20260904152511 26 205 3.2 25.7 0.00 0.00 0.00 62 1011.2
20260904152011 26 49 9.7 25.7 0.00 0.00 0.00 64 1011.3
20260904151524 25 302 9.7 24.1 0.00 0.00 0.00 65 1011.5
20260904151014 25 15 9.7 20.9 0.00 0.00 0.00 71 1011.5
20260904150517 25 234 6.4 20.9 0.00 0.00 0.00 69 1011.5
20260904150039 24 325 6.4 17.7 0.00 0.00 0.00 74 1011.4
20260904145513 23 330 4.8 14.5 0.00 0.00 0.00 81 1011.5
20260904145014 23 265 3.2 9.7 0.00 0.00 0.00 82 1011.4
20260904144532 23 146 3.2 8.0 0.00 0.00 0.00 80 1011.5
20260904144013 23 68 1.6 11.3 0.00 0.00 0.00 81 1011.5
20260904143514 22 38 4.8 11.3 0.00 0.00 0.00 84 1011.5
20260904143028 22 61 3.2 9.7 0.00 0.00 0.00 84 1011.6
20260904142508 22 51 4.8 9.7 0.00 0.00 0.00 84 1011.7
20260904142006 21 56 3.2 8.0 0.00 0.00 0.00 84 1011.6
20260904141527 21 85 3.2 6.4 0.00 0.00 0.00 86 1011.7
20260904141012 21 34 1.6 6.4 0.00 0.00 0.00 90 1011.6
20260904140512 20 93 1.6 4.8 0.00 0.00 0.00 91 1011.7
20260904140032 20 41 1.6 4.8 0.00 0.00 0.00 93 1011.7
20260904135512 20 119 1.6 6.4 0.00 0.00 0.00 95 1011.8
20260904135016 19 137 3.2 9.7 0.00 0.00 0.00 94 1011.9
20260904134531 19 51 1.6 9.7 0.00 0.00 0.00 95 1011.9
20260904134013 18 93 4.8 9.7 0.00 0.00 0.00 95 1011.8
20260904133517 18 328 3.2 6.4 0.00 0.00 0.00 95 1011.9
20260904133032 18 51 1.6 6.4 0.00 0.00 0.00 96 1011.9
20260904132517 18 76 3.2 8.0 0.00 0.00 0.00 95 1011.9
20260904132006 17 325 1.6 8.0 0.00 0.00 0.00 95 1011.9
20260904131519 17 9 1.6 9.7 0.00 0.00 0.00 95 1011.8
20260904131016 17 68 3.2 9.7 0.00 0.00 0.00 95 1011.8
20260904130512 17 48 6.4 9.7 0.00 0.00 0.00 95 1011.8
20260904130029 17 68 4.8 9.7 0.00 0.00 0.00 95 1011.9
20260904125504 17 78 3.2 9.7 0.00 0.00 0.00 95 1011.9
20260904125004 17 41 6.4 9.7 0.00 0.00 0.00 95 1011.9
20260904124506 17 41 3.2 9.7 0.00 0.00 0.00 95 1011.9
20260904124002 17 47 3.2 9.7 0.00 0.00 0.00 95 1011.9
20260904123508 17 22 1.6 6.4 0.00 0.00 0.00 95 1011.9
20260904123011 17 38 1.6 4.8 0.00 0.00 0.00 95 1011.9
20260904122512 17 9 1.6 4.8 0.00 0.00 0.00 95 1011.8
20260904122007 16 9 0.0 6.4 0.00 0.00 0.00 95 1011.8
20260904121517 16 115 3.2 6.4 0.00 0.00 0.00 95 1011.8
20260904121009 16 168 1.6 4.8 0.00 0.00 0.00 95 1011.7
20260904120509 16 51 0.0 4.8 0.00 0.00 0.00 95 1011.7
20260904120024 16 221 1.6 8.0 0.00 0.00 0.00 95 1011.6
20260904115512 16 325 1.6 8.0 0.00 0.00 0.00 94 1011.6
20260904115010 16 68 3.2 8.0 0.00 0.00 0.00 95 1011.5
20260904114530 16 336 3.2 8.0 0.00 0.00 0.00 95 1011.5
20260904114002 16 44 3.2 4.8 0.00 0.00 0.00 95 1011.5
20260904113505 16 26 1.6 8.0 0.00 0.00 0.00 94 1011.5
20260904113006 16 22 3.2 8.0 0.00 0.00 0.00 94 1011.6
20260904112512 16 47 4.8 8.0 0.00 0.00 0.00 94 1011.5
20260904112007 16 9 1.6 6.4 0.00 0.00 0.00 94 1011.5
20260904111514 16 51 0.0 6.4 0.00 0.00 0.00 94 1011.5
20260904111005 16 19 4.8 9.7 0.00 0.00 0.00 94 1011.6
20260904110505 16 9 3.2 9.7 0.00 0.00 0.00 94 1011.5
20260904110019 16 325 1.6 4.8 0.00 0.00 0.00 94 1011.5
20260904105517 16 24 1.6 4.8 0.00 0.00 0.00 94 1011.5
20260904105011 16 338 0.0 3.2 0.00 0.00 0.00 94 1011.5
20260904104524 16 9 0.0 4.8 0.00 0.00 0.00 94 1011.4
20260904104016 16 9 0.0 6.4 0.00 0.00 0.00 94 1011.4
20260904103519 16 9 1.6 6.4 0.00 0.00 0.00 94 1011.5
20260904103036 16 56 3.2 6.4 0.00 0.00 0.00 94 1011.4
20260904102512 16 41 3.2 4.8 0.00 0.00 0.00 94 1011.3
20260904102003 16 9 1.6 4.8 0.00 0.00 0.00 94 1011.2
20260904101510 16 9 1.6 6.4 0.00 0.00 0.00 94 1011.2
20260904101009 16 30 1.6 6.4 0.00 0.00 0.00 94 1011.1
20260904100510 16 38 1.6 8.0 0.00 0.00 0.00 94 1011.0
20260904100014 16 26 3.2 8.0 0.00 0.00 0.00 94 1011.0
20260904095517 16 49 4.8 8.0 0.00 0.00 0.00 94 1011.0
20260904095011 16 48 3.2 6.4 0.00 0.00 0.00 94 1010.9
20260904094518 16 34 3.2 6.4 0.00 0.00 0.00 94 1011.0
20260904094009 16 61 1.6 6.4 0.00 0.00 0.00 94 1011.0
20260904093513 16 22 1.6 6.4 0.00 0.00 0.00 94 1011.0
20260904093032 16 55 3.2 6.4 0.00 0.00 0.00 94 1011.0
20260904092514 16 61 1.6 6.4 0.00 0.00 0.00 94 1011.0
20260904092011 16 36 3.2 6.4 0.00 0.00 0.00 94 1011.0
20260904091530 16 32 3.2 6.4 0.00 0.00 0.00 94 1010.9
20260904091016 16 51 3.2 6.4 0.00 0.00 0.00 94 1011.0
20260904090506 16 48 3.2 6.4 0.00 0.00 0.00 94 1010.9
20260904090011 16 59 1.6 4.8 0.00 0.00 0.00 94 1010.9
20260904085514 16 51 1.6 4.8 0.00 0.00 0.00 94 1010.9
20260904085007 16 44 1.6 6.4 0.00 0.00 0.00 94 1011.0
20260904084518 16 38 3.2 6.4 0.00 0.00 0.00 94 1010.9
20260904084010 16 19 1.6 8.0 0.00 0.00 0.00 94 1011.0
20260904083512 16 19 4.8 8.0 0.00 0.00 0.00 94 1011.0
20260904083022 16 20 3.2 6.4 0.00 0.00 0.00 94 1011.0
20260904082514 16 44 0.0 8.0 0.00 0.00 0.00 94 1011.0
20260904082014 16 22 1.6 8.0 0.00 0.00 0.00 94 1011.0
20260904081534 16 28 3.2 6.4 0.00 0.00 0.00 94 1010.9
20260904081018 16 61 1.6 6.4 0.00 0.00 0.00 94 1010.9
20260904080514 16 51 0.0 1.6 0.00 0.00 0.00 94 1010.9
20260904080028 16 9 0.0 3.2 0.00 0.00 0.00 94 1010.9
20260904075515 16 9 0.0 4.8 0.00 0.00 0.00 94 1010.9
20260904075017 16 319 0.0 6.4 0.00 0.00 0.00 94 1010.9
20260904074514 16 265 0.0 8.0 0.00 0.00 0.00 93 1011.0
20260904074006 16 247 4.8 8.0 0.00 0.00 0.00 93 1011.1
20260904073510 16 238 4.8 9.7 0.00 0.00 0.00 93 1011.2
20260904073019 16 234 4.8 9.7 0.00 0.00 0.00 93 1011.2
20260904072510 16 232 4.8 8.0 0.00 0.00 0.00 93 1011.3
20260904072009 16 252 4.8 8.0 0.00 0.00 0.00 93 1011.3
20260904071532 17 225 3.2 4.8 0.00 0.00 0.00 93 1011.4
20260904071011 17 205 3.2 4.8 0.00 0.00 0.00 93 1011.3
20260904070514 17 255 1.6 4.8 0.00 0.00 0.00 93 1011.3
20260904070029 17 234 1.6 4.8 0.00 0.00 0.00 93 1011.3
20260904065519 17 254 1.6 4.8 0.00 0.00 0.00 93 1011.3
20260904065018 17 275 0.0 4.8 0.00 0.00 0.00 93 1011.3
20260904064533 17 265 0.0 8.0 0.00 0.00 0.00 93 1011.4
20260904064017 17 149 3.2 8.0 0.00 0.00 0.00 93 1011.4
20260904063520 17 231 1.6 6.4 0.00 0.00 0.00 93 1011.5
20260904063035 17 205 1.6 9.7 0.00 0.00 0.00 93 1011.4
20260904062515 17 51 1.6 9.7 0.00 0.00 0.00 93 1011.3
20260904062012 17 34 3.2 6.4 0.00 0.00 0.00 93 1011.5
20260904061524 17 314 1.6 6.4 0.00 0.03 0.00 93 1011.5
20260904061017 17 300 1.6 6.4 0.00 0.03 0.00 93 1011.5
20260904060512 17 68 1.6 4.8 0.00 0.03 0.00 93 1011.5
20260904060029 17 325 1.6 3.2 0.00 0.03 0.00 93 1011.5
20260904055511 17 309 0.0 3.2 0.00 0.05 0.00 93 1011.5
20260904055019 17 309 0.0 3.2 0.00 0.05 0.00 93 1011.6
20260904054530 17 232 0.0 3.2 0.00 0.05 0.00 93 1011.7
20260904054018 17 9 0.0 3.2 0.00 0.05 0.00 93 1011.8
20260904053515 17 9 0.0 3.2 0.00 0.05 0.00 93 1011.9
20260904053039 17 291 1.6 3.2 0.00 0.05 0.00 93 1012.0
20260904052521 17 232 1.6 3.2 0.00 0.05 0.00 93 1012.0
20260904052019 17 51 0.0 3.2 0.00 0.05 0.00 93 1012.1
20260904051538 17 221 0.0 3.2 0.00 0.05 0.00 93 1012.1
20260904051011 17 291 0.0 3.2 0.00 0.05 0.00 93 1012.1
20260904050509 17 93 0.0 3.2 0.00 0.05 0.00 92 1012.1
20260904050034 17 51 0.0 3.2 0.00 0.05 0.00 92 1012.2
20260904045516 17 9 0.0 3.2 0.00 0.05 0.00 92 1012.2
20260904045014 17 309 0.0 4.8 0.00 0.05 0.00 92 1012.1
20260904044528 17 51 0.0 6.4 0.00 0.05 0.00 92 1012.1
20260904044019 17 232 3.2 6.4 0.00 0.05 0.00 92 1012.2
20260904043516 18 209 1.6 9.7 0.00 0.05 0.00 92 1012.1
20260904043031 18 205 3.2 11.3 0.00 0.05 0.00 92 1012.1
20260904042519 18 209 6.4 11.3 0.00 0.05 0.00 92 1012.1
20260904042006 18 213 4.8 8.0 0.00 0.05 0.00 92 1012.1
20260904041521 18 165 1.6 4.8 0.00 0.05 0.00 92 1012.1
20260904041012 18 229 1.6 4.8 0.00 0.05 0.00 92 1012.2
20260904040508 18 232 1.6 4.8 0.00 0.05 0.00 92 1012.2
20260904040025 18 250 1.6 4.8 0.00 0.05 0.00 92 1012.2
20260904035517 18 247 1.6 4.8 0.00 0.05 0.05 92 1012.1
20260904035016 18 238 3.2 4.8 0.00 0.05 0.05 92 1012.2
20260904034532 18 93 0.0 6.4 0.00 0.05 0.05 92 1012.1
20260904034014 18 214 1.6 6.4 0.00 0.05 0.05 92 1012.3
20260904033518 18 193 1.6 6.4 0.00 0.05 0.05 92 1012.3
20260904033008 18 221 1.6 6.4 0.00 0.05 0.05 92 1012.4
20260904032521 18 238 3.2 6.4 0.00 0.05 0.05 92 1012.3
20260904032005 18 243 1.6 3.2 0.00 0.05 0.05 92 1012.4
20260904031514 18 26 0.0 4.8 0.00 0.05 0.05 92 1012.2
20260904031007 18 265 0.0 8.0 0.00 0.05 0.05 92 1012.3
20260904030508 18 178 3.2 8.0 0.00 0.05 0.05 91 1012.3
20260904030020 19 221 3.2 6.4 0.00 0.05 0.05 92 1012.4
20260904025516 19 213 1.6 6.4 0.00 0.05 0.05 91 1012.5
20260904025012 19 221 3.2 6.4 0.00 0.05 0.05 91 1012.6
20260904024526 19 243 1.6 4.8 0.00 0.05 0.05 91 1012.5
20260904024013 19 238 1.6 3.2 0.00 0.05 0.05 91 1012.5
20260904023514 19 205 0.0 3.2 0.00 0.05 0.05 91 1012.7
20260904023031 19 119 0.0 4.8 0.00 0.05 0.05 91 1012.6
20260904022517 20 22 3.2 4.8 0.00 0.05 0.05 91 1012.6
20260904022020 20 41 0.0 4.8 0.00 0.05 0.05 91 1012.4
20260904021508 20 238 1.6 4.8 0.00 0.05 0.05 91 1012.4
20260904021004 20 232 3.2 4.8 0.00 0.05 0.05 91 1012.4
20260904020506 20 214 0.0 4.8 0.00 0.05 0.05 91 1012.5
20260904020015 20 265 1.6 3.2 0.00 0.05 0.05 91 1012.6
20260904015507 20 265 1.6 3.2 0.00 0.05 0.05 90 1012.7
20260904015014 20 265 1.6 3.2 0.00 0.05 0.05 90 1012.7
20260904014523 20 265 0.0 3.2 0.00 0.05 0.05 91 1012.6
20260904014012 20 265 0.0 3.2 0.00 0.05 0.05 90 1012.7
20260904013512 20 9 0.0 3.2 0.00 0.05 0.05 90 1012.8
20260904013027 20 265 0.0 3.2 0.00 0.05 0.05 90 1012.8
20260904012516 20 265 0.0 3.2 0.00 0.05 0.05 90 1012.8
20260904012016 20 178 0.0 3.2 0.00 0.05 0.05 90 1012.7
20260904011533 20 178 0.0 4.8 0.00 0.05 0.05 90 1012.7
20260904011020 21 232 1.6 4.8 0.00 0.05 0.05 90 1012.7
20260904010517 21 234 1.6 4.8 0.00 0.05 0.05 90 1012.7
20260904010013 21 205 0.0 6.4 0.00 0.05 0.05 90 1012.8
20260904005506 21 247 0.0 8.0 0.00 0.05 0.05 90 1012.7
20260904005006 21 234 3.2 8.0 0.00 0.05 0.05 90 1012.7
20260904004517 21 216 3.2 4.8 0.00 0.05 0.05 90 1012.5
20260904004015 21 221 0.0 4.8 0.00 0.05 0.05 89 1012.5
20260904003513 21 227 1.6 6.4 0.00 0.05 0.05 89 1012.4
20260904003026 21 178 1.6 8.0 0.00 0.05 0.05 89 1012.4
20260904002516 21 178 1.6 8.0 0.00 0.05 0.05 89 1012.3
20260904002014 21 196 1.6 6.4 0.00 0.05 0.05 89 1012.2
20260904001526 22 319 3.2 6.4 0.00 0.05 0.05 89 1012.1
20260904001013 22 234 3.2 8.0 0.00 0.05 0.05 89 1011.9
20260904000515 22 232 3.2 8.0 0.00 0.05 0.05 88 1011.9
20260904000110 22 219 4.8 9.7 0.00 0.05 0.05 88 1011.8
20260903235520 22 265 3.2 14.5 0.00 0.05 0.05 88 1011.8
20260903235014 22 163 6.4 14.5 0.00 0.05 0.05 88 1011.7
20260903234534 22 215 8.0 12.9 0.00 0.05 0.05 88 1011.7
20260903234010 22 229 4.8 9.7 0.00 0.05 0.05 87 1011.6
20260903233511 22 165 1.6 8.0 0.00 0.05 0.05 87 1011.6
20260903233026 23 265 1.6 6.4 0.00 0.05 0.05 87 1011.7
20260903232521 23 221 1.6 6.4 0.00 0.05 0.05 87 1011.7
20260903232014 23 265 0.0 3.2 0.00 0.05 0.05 86 1011.6
20260903231530 23 247 0.0 3.2 0.00 0.05 0.05 86 1011.5
20260903231015 23 51 0.0 4.8 0.00 0.05 0.05 86 1011.6
20260903230517 23 334 1.6 6.4 0.00 0.05 0.05 86 1011.6
20260903230035 23 232 3.2 6.4 0.00 0.05 0.05 85 1011.7
20260903225523 23 265 1.6 3.2 0.00 0.05 0.05 86 1011.7
20260903225015 23 238 1.6 4.8 0.00 0.05 0.05 86 1011.8
20260903224543 23 221 1.6 6.4 0.00 0.05 0.05 85 1011.6
20260903224019 24 250 1.6 8.0 0.00 0.05 0.05 85 1011.7
20260903223524 24 234 4.8 8.0 0.00 0.05 0.05 85 1011.8
20260903223036 24 229 4.8 6.4 0.00 0.05 0.05 85 1011.7
20260903222510 24 229 3.2 6.4 0.00 0.05 0.05 85 1011.7
20260903222012 24 250 1.6 4.8 0.00 0.05 0.05 85 1011.5
20260903221529 24 238 0.0 4.8 0.00 0.05 0.05 84 1011.7
20260903221012 25 238 3.2 6.4 0.00 0.05 0.05 83 1011.7
20260903220514 25 291 3.2 9.7 0.00 0.05 0.05 82 1011.6
20260903220030 25 225 6.4 12.9 0.00 0.05 0.05 81 1011.7
20260903215519 25 200 8.0 17.7 0.00 0.05 0.05 80 1011.8
20260903215014 25 201 6.4 17.7 0.00 0.05 0.05 80 1011.8
20260903214535 25 213 6.4 17.7 0.00 0.05 0.05 80 1011.9
20260903214016 25 213 8.0 12.9 0.00 0.05 0.05 82 1012.2
20260903213520 25 219 6.4 11.3 0.00 0.05 0.05 82 1012.3
20260903213037 25 194 4.8 11.3 0.00 0.05 0.05 81 1012.1
20260903212519 25 209 3.2 8.0 0.00 0.05 0.05 82 1012.0
20260903212014 25 51 1.6 6.4 0.00 0.05 0.05 84 1011.9
20260903211541 24 24 4.8 6.4 0.00 0.05 0.05 84 1011.9
20260903211010 24 309 3.2 6.4 0.00 0.05 0.05 84 1012.0
20260903210512 24 22 0.0 4.8 0.00 0.05 0.05 83 1012.0
20260903210025 24 309 0.0 4.8 0.00 0.05 0.05 82 1011.9
20260903205522 25 265 1.6 6.4 0.00 0.05 0.05 81 1011.9
20260903205015 25 168 1.6 8.0 0.00 0.05 0.05 81 1011.9
20260903204532 25 216 4.8 9.7 0.00 0.05 0.05 80 1011.9
20260903204017 25 212 6.4 11.3 0.00 0.05 0.05 80 1012.0
20260903203519 25 232 4.8 14.5 0.00 0.05 0.05 79 1011.9
20260903203040 25 221 6.4 14.5 0.00 0.05 0.05 79 1011.9
20260903202518 25 194 6.4 14.5 0.00 0.05 0.05 78 1011.9
20260903202015 25 175 8.0 14.5 0.00 0.05 0.05 79 1011.9
20260903201536 25 212 4.8 12.9 0.00 0.05 0.05 79 1011.9
20260903201009 25 220 4.8 9.7 0.00 0.05 0.05 80 1011.9
20260903200506 25 74 3.2 16.1 0.00 0.05 0.05 81 1012.1
20260903200005 25 195 6.4 16.1 0.00 0.05 0.05 81 1012.1
20260903195524 25 219 8.0 16.1 0.00 0.05 0.05 81 1012.2
20260903195004 25 244 4.8 12.9 0.00 0.05 0.05 81 1012.2
20260903194510 25 168 1.6 12.9 0.00 0.05 0.05 82 1012.3
20260903194005 25 51 4.8 14.5 0.00 0.05 0.05 81 1012.4
20260903193507 25 214 4.8 16.1 0.00 0.05 0.05 81 1012.5
20260903193011 24 150 6.4 16.1 0.00 0.05 0.05 82 1012.4
20260903192503 24 232 4.8 12.9 0.00 0.05 0.05 81 1012.5
20260903192008 24 178 4.8 12.9 0.00 0.05 0.05 82 1012.6
20260903191529 23 213 6.4 12.9 0.00 0.05 0.05 84 1012.7
20260903191022 23 196 4.8 11.3 0.00 0.05 0.05 83 1012.7
20260903190510 23 187 3.2 9.7 0.00 0.05 0.05 83 1012.9
20260903190049 23 178 1.6 8.0 0.00 0.05 0.05 84 1013.0
20260903185511 22 205 1.6 6.4 0.00 0.05 0.05 84 1013.0
20260903185014 22 78 1.6 6.4 0.00 0.05 0.05 85 1012.9
20260903184509 22 178 1.6 3.2 0.00 0.05 0.05 85 1013.0
20260903184006 22 51 1.6 6.4 0.00 0.05 0.05 84 1013.0
20260903183503 22 291 1.6 9.7 0.00 0.05 0.05 86 1013.1
20260903183009 22 63 4.8 11.3 0.00 0.05 0.05 85 1013.1
20260903182504 22 31 4.8 11.3 0.00 0.05 0.05 85 1013.1
20260903182004 22 79 4.8 16.1 0.00 0.05 0.05 84 1013.2
20260903181531 22 44 6.4 16.1 0.00 0.05 0.05 84 1013.2
20260903181009 22 38 6.4 11.3 0.00 0.05 0.05 86 1013.2
20260903180508 22 49 6.4 8.0 0.00 0.05 0.05 86 1013.2
20260903180033 21 41 1.6 14.5 0.00 0.05 0.05 86 1013.1
20260903175510 22 47 6.4 14.5 0.00 0.05 0.05 87 1013.2
20260903175010 21 41 4.8 12.9 0.00 0.05 0.05 87 1013.2
20260903174526 21 65 4.8 12.9 0.00 0.05 0.05 87 1013.2